2023-12-28T00:00:00,prt,19.55
2023-12-28T00:01:00,prt,19.54
2023-12-28T00:02:00,prt,20.26
2023-12-28T00:03:00,prt,19.48
2023-12-28T00:04:00,prt,19.46
2023-12-28T00:05:00,prt,18.99
2023-12-28T00:06:00,prt,18.13
2023-12-28T00:07:00,prt,19.14
2023-12-28T00:08:00,prt,18.58
2023-12-28T00:09:00,prt,18.37
2023-12-28T00:10:00,prt,18.85
2023-12-28T00:11:00,prt,18.95
2023-12-28T00:12:00,prt,19.98
2023-12-28T00:13:00,prt,20.88
2023-12-28T00:14:00,prt,20.73
2023-12-28T00:15:00,prt,21.75
2023-12-28T00:16:00,prt,21.71
2023-12-28T00:17:00,prt,20.70
2023-12-28T00:18:00,prt,21.75
2023-12-28T00:19:00,prt,20.61
2023-12-28T00:20:00,prt,23.49
2023-12-28T00:21:00,prt,23.91
2023-12-28T00:22:00,prt,23.02
2023-12-28T00:23:00,prt,22.21
2023-12-28T00:24:00,prt,21.36
2023-12-28T00:25:00,prt,21.99
2023-12-28T00:26:00,prt,22.86
2023-12-28T00:27:00,prt,22.55
2023-12-28T00:28:00,prt,20.96
2023-12-28T00:29:00,prt,21.49
2023-12-28T00:30:00,prt,20.98
2023-12-28T00:31:00,prt,20.58
2023-12-28T00:32:00,prt,19.65
2023-12-28T00:33:00,prt,19.71
2023-12-28T00:34:00,prt,19.73
2023-12-28T00:35:00,prt,19.78
2023-12-28T00:36:00,prt,19.52
2023-12-28T00:37:00,prt,19.35
2023-12-28T00:38:00,prt,19.56
2023-12-28T00:39:00,prt,20.52
2023-12-28T00:40:00,prt,20.15
2023-12-28T00:41:00,prt,20.05
2023-12-28T00:42:00,prt,21.07
2023-12-28T00:43:00,prt,21.05
2023-12-28T00:44:00,prt,21.00
2023-12-28T00:45:00,prt,20.96
2023-12-28T00:46:00,prt,20.39
2023-12-28T00:47:00,prt,19.91
2023-12-28T00:48:00,prt,16.54
2023-12-28T00:49:00,prt,17.23
2023-12-28T00:50:00,prt,17.71
2023-12-28T00:51:00,prt,20.67
2023-12-28T00:52:00,prt,20.00
2023-12-28T00:53:00,prt,20.54
2023-12-28T00:54:00,prt,17.95
2023-12-28T00:55:00,prt,21.77
2023-12-28T00:56:00,prt,18.64
2023-12-28T00:57:00,prt,18.32
2023-12-28T00:58:00,prt,17.45
2023-12-28T00:59:00,prt,17.36
2023-12-28T01:00:00,prt,16.95
2023-12-28T01:01:00,prt,16.87
2023-12-28T01:02:00,prt,16.36
2023-12-28T01:03:00,prt,16.69
2023-12-28T01:04:00,prt,16.71
2023-12-28T01:05:00,prt,16.18
2023-12-28T01:06:00,prt,16.07
2023-12-28T01:07:00,prt,16.43
2023-12-28T01:08:00,prt,20.14
2023-12-28T01:09:00,prt,22.93
2023-12-28T01:10:00,prt,23.46
2023-12-28T01:11:00,prt,22.96
2023-12-28T01:12:00,prt,22.22
2023-12-28T01:13:00,prt,21.50
2023-12-28T01:14:00,prt,21.57
2023-12-28T01:15:00,prt,19.57
2023-12-28T01:16:00,prt,19.49
2023-12-28T01:17:00,prt,19.44
2023-12-28T01:18:00,prt,19.44
2023-12-28T01:19:00,prt,17.27
2023-12-28T01:20:00,prt,17.29
2023-12-28T01:21:00,prt,20.40
2023-12-28T01:22:00,prt,21.50
2023-12-28T01:23:00,prt,21.20
2023-12-28T01:24:00,prt,20.75
2023-12-28T01:25:00,prt,17.46
2023-12-28T01:26:00,prt,17.51
2023-12-28T01:27:00,prt,17.87
2023-12-28T01:28:00,prt,17.95
2023-12-28T01:29:00,prt,17.39
2023-12-28T01:30:00,prt,17.41
2023-12-28T01:31:00,prt,17.96
2023-12-28T01:32:00,prt,19.67
2023-12-28T01:33:00,prt,19.76
2023-12-28T01:34:00,prt,19.90
2023-12-28T01:35:00,prt,20.07
2023-12-28T01:36:00,prt,20.34
2023-12-28T01:37:00,prt,19.88
2023-12-28T01:38:00,prt,22.32
2023-12-28T01:39:00,prt,22.25
2023-12-28T01:40:00,prt,20.67
2023-12-28T01:41:00,prt,21.00
2023-12-28T01:42:00,prt,20.93
2023-12-28T01:43:00,prt,21.24
2023-12-28T01:44:00,prt,19.19
2023-12-28T01:45:00,prt,17.32
2023-12-28T01:46:00,prt,16.36
2023-12-28T01:47:00,prt,16.28
2023-12-28T01:48:00,prt,16.88
2023-12-28T01:49:00,prt,17.63
2023-12-28T01:50:00,prt,18.32
2023-12-28T01:51:00,prt,18.39
2023-12-28T01:52:00,prt,21.40
2023-12-28T01:53:00,prt,20.58
2023-12-28T01:54:00,prt,20.87
2023-12-28T01:55:00,prt,18.47
2023-12-28T01:56:00,prt,17.27
2023-12-28T01:57:00,prt,18.08
2023-12-28T01:58:00,prt,17.73
2023-12-28T01:59:00,prt,17.41
2023-12-28T02:00:00,prt,18.76
2023-12-28T02:01:00,prt,18.86
2023-12-28T02:02:00,prt,19.95
2023-12-28T02:03:00,prt,19.85
2023-12-28T02:04:00,prt,20.10
2023-12-28T02:05:00,prt,19.21
2023-12-28T02:06:00,prt,19.64
2023-12-28T02:07:00,prt,19.69
2023-12-28T02:08:00,prt,19.29
2023-12-28T02:09:00,prt,21.97
2023-12-28T02:10:00,prt,19.63
2023-12-28T02:11:00,prt,19.90
2023-12-28T02:12:00,prt,19.82
2023-12-28T02:13:00,prt,20.51
2023-12-28T02:14:00,prt,19.49
2023-12-28T02:15:00,prt,19.92
2023-12-28T02:16:00,prt,17.59
2023-12-28T02:17:00,prt,18.39
2023-12-28T02:18:00,prt,18.65
2023-12-28T02:19:00,prt,17.98
2023-12-28T02:20:00,prt,17.23
2023-12-28T02:21:00,prt,17.24
2023-12-28T02:22:00,prt,15.71
2023-12-28T02:23:00,prt,20.12
2023-12-28T02:24:00,prt,19.85
2023-12-28T02:25:00,prt,19.76
2023-12-28T02:26:00,prt,15.72
2023-12-28T02:27:00,prt,15.78
2023-12-28T02:28:00,prt,16.39
2023-12-28T02:29:00,prt,18.20
2023-12-28T02:30:00,prt,19.11
2023-12-28T02:31:00,prt,18.35
2023-12-28T02:32:00,prt,18.36
2023-12-28T02:33:00,prt,18.27
2023-12-28T02:34:00,prt,17.53
2023-12-28T02:35:00,prt,18.15
2023-12-28T02:36:00,prt,17.38
2023-12-28T02:37:00,prt,17.40
2023-12-28T02:38:00,prt,17.69
2023-12-28T02:39:00,prt,18.53
2023-12-28T02:40:00,prt,21.53
2023-12-28T02:41:00,prt,21.56
2023-12-28T02:42:00,prt,22.09
2023-12-28T02:43:00,prt,22.11
2023-12-28T02:44:00,prt,23.19
2023-12-28T02:45:00,prt,23.14
2023-12-28T02:46:00,prt,22.28
2023-12-28T02:47:00,prt,18.22
2023-12-28T02:48:00,prt,16.02
2023-12-28T02:49:00,prt,16.03
2023-12-28T02:50:00,prt,16.61
2023-12-28T02:51:00,prt,18.50
2023-12-28T02:52:00,prt,19.07
2023-12-28T02:53:00,prt,21.96
2023-12-28T02:54:00,prt,23.80
2023-12-28T02:55:00,prt,23.67
2023-12-28T02:56:00,prt,24.49
2023-12-28T02:57:00,prt,20.64
2023-12-28T02:58:00,prt,19.80
2023-12-28T02:59:00,prt,20.61
2023-12-28T03:00:00,prt,20.10
2023-12-28T03:01:00,prt,16.86
2023-12-28T03:02:00,prt,17.19
2023-12-28T03:03:00,prt,16.64
2023-12-28T03:04:00,prt,16.14
2023-12-28T03:05:00,prt,16.68
2023-12-28T03:06:00,prt,16.67
2023-12-28T03:07:00,prt,17.40
2023-12-28T03:08:00,prt,16.88
2023-12-28T03:09:00,prt,18.39
2023-12-28T03:10:00,prt,21.09
2023-12-28T03:11:00,prt,20.61
2023-12-28T03:12:00,prt,20.22
2023-12-28T03:13:00,prt,20.02
2023-12-28T03:14:00,prt,20.03
2023-12-28T03:15:00,prt,21.39
2023-12-28T03:16:00,prt,21.33
2023-12-28T03:17:00,prt,18.73
2023-12-28T03:18:00,prt,18.51
2023-12-28T03:19:00,prt,17.50
2023-12-28T03:20:00,prt,18.07
2023-12-28T03:21:00,prt,18.38
2023-12-28T03:22:00,prt,17.00
2023-12-28T03:23:00,prt,18.61
2023-12-28T03:24:00,prt,21.92
2023-12-28T03:25:00,prt,21.33
2023-12-28T03:26:00,prt,22.14
2023-12-28T03:27:00,prt,19.78
2023-12-28T03:28:00,prt,16.61
2023-12-28T03:29:00,prt,16.09
2023-12-28T03:30:00,prt,16.05
2023-12-28T03:31:00,prt,16.07
2023-12-28T03:32:00,prt,16.05
2023-12-28T03:33:00,prt,17.34
2023-12-28T03:34:00,prt,17.20
2023-12-28T03:35:00,prt,17.14
2023-12-28T03:36:00,prt,18.84
2023-12-28T03:37:00,prt,18.69
2023-12-28T03:38:00,prt,18.61
2023-12-28T03:39:00,prt,19.68
2023-12-28T03:40:00,prt,15.57
2023-12-28T03:41:00,prt,20.48
2023-12-28T03:42:00,prt,20.59
2023-12-28T03:43:00,prt,23.02
2023-12-28T03:44:00,prt,22.59
2023-12-28T03:45:00,prt,21.96
2023-12-28T03:46:00,prt,21.24
2023-12-28T03:47:00,prt,21.49
2023-12-28T03:48:00,prt,18.71
2023-12-28T03:49:00,prt,19.74
2023-12-28T03:50:00,prt,21.05
2023-12-28T03:51:00,prt,21.30
2023-12-28T03:52:00,prt,18.72
2023-12-28T03:53:00,prt,18.62
2023-12-28T03:54:00,prt,17.82
2023-12-28T03:55:00,prt,21.53
2023-12-28T03:56:00,prt,22.27
2023-12-28T03:57:00,prt,21.73
2023-12-28T03:58:00,prt,19.75
2023-12-28T03:59:00,prt,17.78
2023-12-28T04:00:00,prt,16.82
2023-12-28T04:01:00,prt,16.81
2023-12-28T04:02:00,prt,17.42
2023-12-28T04:03:00,prt,18.04
2023-12-28T04:04:00,prt,17.75
2023-12-28T04:05:00,prt,17.19
2023-12-28T04:06:00,prt,17.49
2023-12-28T04:07:00,prt,16.02
2023-12-28T04:08:00,prt,16.26
2023-12-28T04:09:00,prt,16.21
2023-12-28T04:10:00,prt,15.60
2023-12-28T04:11:00,prt,18.66
2023-12-28T04:12:00,prt,18.56
2023-12-28T04:13:00,prt,19.22
2023-12-28T04:14:00,prt,19.32
2023-12-28T04:15:00,prt,19.30
2023-12-28T04:16:00,prt,20.05
2023-12-28T04:17:00,prt,19.57
2023-12-28T04:18:00,prt,17.37
2023-12-28T04:19:00,prt,17.61
2023-12-28T04:20:00,prt,17.53
2023-12-28T04:21:00,prt,17.11
2023-12-28T04:22:00,prt,17.13
2023-12-28T04:23:00,prt,17.53
2023-12-28T04:24:00,prt,16.27
2023-12-28T04:25:00,prt,17.80
2023-12-28T04:26:00,prt,22.67
2023-12-28T04:27:00,prt,22.29
2023-12-28T04:28:00,prt,20.98
2023-12-28T04:29:00,prt,18.16
2023-12-28T04:30:00,prt,19.30
2023-12-28T04:31:00,prt,18.56
2023-12-28T04:32:00,prt,17.83
2023-12-28T04:33:00,prt,17.07
2023-12-28T04:34:00,prt,18.36
2023-12-28T04:35:00,prt,18.56
2023-12-28T04:36:00,prt,18.77
2023-12-28T04:37:00,prt,19.35
2023-12-28T04:38:00,prt,19.64
2023-12-28T04:39:00,prt,20.18
2023-12-28T04:40:00,prt,19.81
2023-12-28T04:41:00,prt,19.21
2023-12-28T04:42:00,prt,21.61
2023-12-28T04:43:00,prt,22.86
2023-12-28T04:44:00,prt,21.75
2023-12-28T04:45:00,prt,21.74
2023-12-28T04:46:00,prt,21.41
2023-12-28T04:47:00,prt,20.19
2023-12-28T04:48:00,prt,17.42
2023-12-28T04:49:00,prt,16.91
2023-12-28T04:50:00,prt,17.90
2023-12-28T04:51:00,prt,17.31
2023-12-28T04:52:00,prt,16.77
2023-12-28T04:53:00,prt,16.73
2023-12-28T04:54:00,prt,17.12
2023-12-28T04:55:00,prt,16.15
2023-12-28T04:56:00,prt,16.92
2023-12-28T04:57:00,prt,20.72
2023-12-28T04:58:00,prt,20.27
2023-12-28T04:59:00,prt,20.76
2023-12-28T05:00:00,prt,18.70
2023-12-28T05:01:00,prt,18.23
2023-12-28T05:02:00,prt,18.84
2023-12-28T05:03:00,prt,17.71
2023-12-28T05:04:00,prt,18.32
2023-12-28T05:05:00,prt,17.98
2023-12-28T05:06:00,prt,19.15
2023-12-28T05:07:00,prt,20.38
2023-12-28T05:08:00,prt,18.08
2023-12-28T05:09:00,prt,18.14
2023-12-28T05:10:00,prt,19.11
2023-12-28T05:11:00,prt,17.84
2023-12-28T05:12:00,prt,20.62
2023-12-28T05:13:00,prt,20.54
2023-12-28T05:14:00,prt,19.78
2023-12-28T05:15:00,prt,19.60
2023-12-28T05:16:00,prt,19.73
2023-12-28T05:17:00,prt,21.72
2023-12-28T05:18:00,prt,22.05
2023-12-28T05:19:00,prt,18.45
2023-12-28T05:20:00,prt,18.45
2023-12-28T05:21:00,prt,18.33
2023-12-28T05:22:00,prt,18.19
2023-12-28T05:23:00,prt,18.86
2023-12-28T05:24:00,prt,17.82
2023-12-28T05:25:00,prt,17.49
2023-12-28T05:26:00,prt,20.68
2023-12-28T05:27:00,prt,19.62
2023-12-28T05:28:00,prt,23.44
2023-12-28T05:29:00,prt,23.53
2023-12-28T05:30:00,prt,23.83
2023-12-28T05:31:00,prt,20.97
2023-12-28T05:32:00,prt,20.95
2023-12-28T05:33:00,prt,21.36
2023-12-28T05:34:00,prt,20.19
2023-12-28T05:35:00,prt,17.15
2023-12-28T05:36:00,prt,17.94
2023-12-28T05:37:00,prt,18.16
2023-12-28T05:38:00,prt,18.55
2023-12-28T05:39:00,prt,18.38
2023-12-28T05:40:00,prt,18.06
2023-12-28T05:41:00,prt,17.39
2023-12-28T05:42:00,prt,18.41
2023-12-28T05:43:00,prt,20.23
2023-12-28T05:44:00,prt,20.53
2023-12-28T05:45:00,prt,19.79
2023-12-28T05:46:00,prt,19.62
2023-12-28T05:47:00,prt,19.48
2023-12-28T05:48:00,prt,19.76
2023-12-28T05:49:00,prt,17.67
2023-12-28T05:50:00,prt,18.87
2023-12-28T05:51:00,prt,20.67
2023-12-28T05:52:00,prt,20.50
2023-12-28T05:53:00,prt,20.32
2023-12-28T05:54:00,prt,19.94
2023-12-28T05:55:00,prt,20.05
2023-12-28T05:56:00,prt,19.27
2023-12-28T05:57:00,prt,19.45
2023-12-28T05:58:00,prt,23.20
2023-12-28T05:59:00,prt,22.19
2023-12-28T06:00:00,prt,22.23
2023-12-28T06:01:00,prt,21.99
2023-12-28T06:02:00,prt,18.08
2023-12-28T06:03:00,prt,19.36
2023-12-28T06:04:00,prt,19.21
2023-12-28T06:05:00,prt,24.10
2023-12-28T06:06:00,prt,23.12
2023-12-28T06:07:00,prt,21.70
2023-12-28T06:08:00,prt,19.25
2023-12-28T06:09:00,prt,19.06
2023-12-28T06:10:00,prt,19.25
2023-12-28T06:11:00,prt,20.61
2023-12-28T06:12:00,prt,20.92
2023-12-28T06:13:00,prt,21.23
2023-12-28T06:14:00,prt,21.60
2023-12-28T06:15:00,prt,20.55
2023-12-28T06:16:00,prt,20.69
2023-12-28T06:17:00,prt,20.97
2023-12-28T06:18:00,prt,20.12
2023-12-28T06:19:00,prt,20.47
2023-12-28T06:20:00,prt,20.47
2023-12-28T06:21:00,prt,19.64
2023-12-28T06:22:00,prt,19.25
2023-12-28T06:23:00,prt,21.48
2023-12-28T06:24:00,prt,19.65
2023-12-28T06:25:00,prt,20.15
2023-12-28T06:26:00,prt,20.19
2023-12-28T06:27:00,prt,19.13
2023-12-28T06:28:00,prt,19.90
2023-12-28T06:29:00,prt,22.96
2023-12-28T06:30:00,prt,24.19
2023-12-28T06:31:00,prt,23.69
2023-12-28T06:32:00,prt,23.40
2023-12-28T06:33:00,prt,20.23
2023-12-28T06:34:00,prt,19.33
2023-12-28T06:35:00,prt,19.61
2023-12-28T06:36:00,prt,21.45
2023-12-28T06:37:00,prt,20.94
2023-12-28T06:38:00,prt,22.44
2023-12-28T06:39:00,prt,22.58
2023-12-28T06:40:00,prt,22.46
2023-12-28T06:41:00,prt,23.03
2023-12-28T06:42:00,prt,23.47
2023-12-28T06:43:00,prt,23.19
2023-12-28T06:44:00,prt,24.04
2023-12-28T06:45:00,prt,24.54
2023-12-28T06:46:00,prt,24.80
2023-12-28T06:47:00,prt,19.91
2023-12-28T06:48:00,prt,19.17
2023-12-28T06:49:00,prt,17.32
2023-12-28T06:50:00,prt,17.82
2023-12-28T06:51:00,prt,18.73
2023-12-28T06:52:00,prt,19.29
2023-12-28T06:53:00,prt,19.29
2023-12-28T06:54:00,prt,19.63
2023-12-28T06:55:00,prt,18.99
2023-12-28T06:56:00,prt,19.15
2023-12-28T06:57:00,prt,19.06
2023-12-28T06:58:00,prt,18.42
2023-12-28T06:59:00,prt,18.40
2023-12-28T07:00:00,prt,21.07
2023-12-28T07:01:00,prt,20.54
2023-12-28T07:02:00,prt,21.09
2023-12-28T07:03:00,prt,20.09
2023-12-28T07:04:00,prt,16.80
2023-12-28T07:05:00,prt,17.77
2023-12-28T07:06:00,prt,18.99
2023-12-28T07:07:00,prt,22.86
2023-12-28T07:08:00,prt,22.46
2023-12-28T07:09:00,prt,21.80
2023-12-28T07:10:00,prt,21.63
2023-12-28T07:11:00,prt,21.78
2023-12-28T07:12:00,prt,22.10
2023-12-28T07:13:00,prt,22.58
2023-12-28T07:14:00,prt,18.83
2023-12-28T07:15:00,prt,18.71
2023-12-28T07:16:00,prt,18.46
2023-12-28T07:17:00,prt,17.95
2023-12-28T07:18:00,prt,18.30
2023-12-28T07:19:00,prt,17.60
2023-12-28T07:20:00,prt,18.81
2023-12-28T07:21:00,prt,18.19
2023-12-28T07:22:00,prt,18.14
2023-12-28T07:23:00,prt,19.09
2023-12-28T07:24:00,prt,18.73
2023-12-28T07:25:00,prt,18.45
2023-12-28T07:26:00,prt,19.21
2023-12-28T07:27:00,prt,20.33
2023-12-28T07:28:00,prt,19.75
2023-12-28T07:29:00,prt,19.74
2023-12-28T07:30:00,prt,19.71
2023-12-28T07:31:00,prt,23.29
2023-12-28T07:32:00,prt,25.21
2023-12-28T07:33:00,prt,26.02
2023-12-28T07:34:00,prt,25.07
2023-12-28T07:35:00,prt,21.65
2023-12-28T07:36:00,prt,21.63
2023-12-28T07:37:00,prt,19.85
2023-12-28T07:38:00,prt,22.51
2023-12-28T07:39:00,prt,22.44
2023-12-28T07:40:00,prt,19.97
2023-12-28T07:41:00,prt,20.24
2023-12-28T07:42:00,prt,23.34
2023-12-28T07:43:00,prt,22.27
2023-12-28T07:44:00,prt,20.63
2023-12-28T07:45:00,prt,17.72
2023-12-28T07:46:00,prt,18.40
2023-12-28T07:47:00,prt,18.40
2023-12-28T07:48:00,prt,18.09
2023-12-28T07:49:00,prt,18.46
2023-12-28T07:50:00,prt,19.25
2023-12-28T07:51:00,prt,18.12
2023-12-28T07:52:00,prt,17.96
2023-12-28T07:53:00,prt,18.41
2023-12-28T07:54:00,prt,18.42
2023-12-28T07:55:00,prt,18.49
2023-12-28T07:56:00,prt,18.41
2023-12-28T07:57:00,prt,16.83
2023-12-28T07:58:00,prt,17.22
2023-12-28T07:59:00,prt,17.69
2023-12-28T08:00:00,prt,17.94
2023-12-28T08:01:00,prt,17.33
2023-12-28T08:02:00,prt,20.96
2023-12-28T08:03:00,prt,21.89
2023-12-28T08:04:00,prt,21.48
2023-12-28T08:05:00,prt,21.74
2023-12-28T08:06:00,prt,20.12
2023-12-28T08:07:00,prt,18.64
2023-12-28T08:08:00,prt,22.05
2023-12-28T08:09:00,prt,22.06
2023-12-28T08:10:00,prt,21.92
2023-12-28T08:11:00,prt,21.62
2023-12-28T08:12:00,prt,20.02
2023-12-28T08:13:00,prt,20.46
2023-12-28T08:14:00,prt,21.47
2023-12-28T08:15:00,prt,18.13
2023-12-28T08:16:00,prt,18.68
2023-12-28T08:17:00,prt,19.35
2023-12-28T08:18:00,prt,20.82
2023-12-28T08:19:00,prt,20.21
2023-12-28T08:20:00,prt,21.88
2023-12-28T08:21:00,prt,21.07
2023-12-28T08:22:00,prt,19.62
2023-12-28T08:23:00,prt,18.38
2023-12-28T08:24:00,prt,18.43
2023-12-28T08:25:00,prt,18.69
2023-12-28T08:26:00,prt,18.12
2023-12-28T08:27:00,prt,21.45
2023-12-28T08:28:00,prt,19.39
2023-12-28T08:29:00,prt,19.54
2023-12-28T08:30:00,prt,20.86
2023-12-28T08:31:00,prt,20.34
2023-12-28T08:32:00,prt,19.63
2023-12-28T08:33:00,prt,22.11
2023-12-28T08:34:00,prt,21.19
2023-12-28T08:35:00,prt,21.60
2023-12-28T08:36:00,prt,20.11
2023-12-28T08:37:00,prt,18.52
2023-12-28T08:38:00,prt,22.65
2023-12-28T08:39:00,prt,21.71
2023-12-28T08:40:00,prt,22.07
2023-12-28T08:41:00,prt,22.58
2023-12-28T08:42:00,prt,23.72
2023-12-28T08:43:00,prt,23.87
2023-12-28T08:44:00,prt,24.43
2023-12-28T08:45:00,prt,20.63
2023-12-28T08:46:00,prt,19.83
2023-12-28T08:47:00,prt,18.70
2023-12-28T08:48:00,prt,18.04
2023-12-28T08:49:00,prt,17.94
2023-12-28T08:50:00,prt,17.89
2023-12-28T08:51:00,prt,18.40
2023-12-28T08:52:00,prt,18.44
2023-12-28T08:53:00,prt,18.83
2023-12-28T08:54:00,prt,18.78
2023-12-28T08:55:00,prt,18.11
2023-12-28T08:56:00,prt,19.67
2023-12-28T08:57:00,prt,19.17
2023-12-28T08:58:00,prt,19.21
2023-12-28T08:59:00,prt,18.60
2023-12-28T09:00:00,prt,17.93
2023-12-28T09:01:00,prt,17.95
2023-12-28T09:02:00,prt,17.90
2023-12-28T09:03:00,prt,18.03
2023-12-28T09:04:00,prt,20.95
2023-12-28T09:05:00,prt,21.40
2023-12-28T09:06:00,prt,21.55
2023-12-28T09:07:00,prt,22.56
2023-12-28T09:08:00,prt,19.20
2023-12-28T09:09:00,prt,24.14
2023-12-28T09:10:00,prt,26.18
2023-12-28T09:11:00,prt,24.37
2023-12-28T09:12:00,prt,25.71
2023-12-28T09:13:00,prt,26.53
2023-12-28T09:14:00,prt,25.20
2023-12-28T09:15:00,prt,22.15
2023-12-28T09:16:00,prt,23.31
2023-12-28T09:17:00,prt,23.63
2023-12-28T09:18:00,prt,23.68
2023-12-28T09:19:00,prt,20.39
2023-12-28T09:20:00,prt,19.49
2023-12-28T09:21:00,prt,18.75
2023-12-28T09:22:00,prt,20.02
2023-12-28T09:23:00,prt,20.07
2023-12-28T09:24:00,prt,19.90
2023-12-28T09:25:00,prt,19.83
2023-12-28T09:26:00,prt,19.35
2023-12-28T09:27:00,prt,18.10
2023-12-28T09:28:00,prt,17.94
2023-12-28T09:29:00,prt,19.12
2023-12-28T09:30:00,prt,18.93
2023-12-28T09:31:00,prt,18.50
2023-12-28T09:32:00,prt,17.74
2023-12-28T09:33:00,prt,18.52
2023-12-28T09:34:00,prt,19.01
2023-12-28T09:35:00,prt,21.97
2023-12-28T09:36:00,prt,22.76
2023-12-28T09:37:00,prt,23.00
2023-12-28T09:38:00,prt,22.19
2023-12-28T09:39:00,prt,23.05
2023-12-28T09:40:00,prt,21.36
2023-12-28T09:41:00,prt,21.54
2023-12-28T09:42:00,prt,21.13
2023-12-28T09:43:00,prt,20.96
2023-12-28T09:44:00,prt,20.91
2023-12-28T09:45:00,prt,17.96
2023-12-28T09:46:00,prt,17.36
2023-12-28T09:47:00,prt,18.41
2023-12-28T09:48:00,prt,18.44
2023-12-28T09:49:00,prt,20.98
2023-12-28T09:50:00,prt,22.45
2023-12-28T09:51:00,prt,22.60
2023-12-28T09:52:00,prt,21.67
2023-12-28T09:53:00,prt,21.89
2023-12-28T09:54:00,prt,20.77
2023-12-28T09:55:00,prt,20.28
2023-12-28T09:56:00,prt,19.52
2023-12-28T09:57:00,prt,20.46
2023-12-28T09:58:00,prt,19.21
2023-12-28T09:59:00,prt,18.79
2023-12-28T10:00:00,prt,21.69
2023-12-28T10:01:00,prt,21.88
2023-12-28T10:02:00,prt,22.74
2023-12-28T10:03:00,prt,22.69
2023-12-28T10:04:00,prt,23.03
2023-12-28T10:05:00,prt,22.85
2023-12-28T10:06:00,prt,25.07
2023-12-28T10:07:00,prt,23.55
2023-12-28T10:08:00,prt,23.17
2023-12-28T10:09:00,prt,24.29
2023-12-28T10:10:00,prt,19.85
2023-12-28T10:11:00,prt,19.41
2023-12-28T10:12:00,prt,19.17
2023-12-28T10:13:00,prt,20.03
2023-12-28T10:14:00,prt,20.56
2023-12-28T10:15:00,prt,17.26
2023-12-28T10:16:00,prt,18.09
2023-12-28T10:17:00,prt,17.61
2023-12-28T10:18:00,prt,17.45
2023-12-28T10:19:00,prt,17.68
2023-12-28T10:20:00,prt,16.96
2023-12-28T10:21:00,prt,16.96
2023-12-28T10:22:00,prt,17.95
2023-12-28T10:23:00,prt,17.64
2023-12-28T10:24:00,prt,17.43
2023-12-28T10:25:00,prt,18.02
2023-12-28T10:26:00,prt,18.76
2023-12-28T10:27:00,prt,18.65
2023-12-28T10:28:00,prt,18.93
2023-12-28T10:29:00,prt,18.23
2023-12-28T10:30:00,prt,18.52
2023-12-28T10:31:00,prt,18.54
2023-12-28T10:32:00,prt,17.90
2023-12-28T10:33:00,prt,17.10
2023-12-28T10:34:00,prt,17.09
2023-12-28T10:35:00,prt,17.10
2023-12-28T10:36:00,prt,17.00
2023-12-28T10:37:00,prt,20.64
2023-12-28T10:38:00,prt,20.87
2023-12-28T10:39:00,prt,23.16
2023-12-28T10:40:00,prt,21.92
2023-12-28T10:41:00,prt,20.15
2023-12-28T10:42:00,prt,21.20
2023-12-28T10:43:00,prt,22.73
2023-12-28T10:44:00,prt,22.48
2023-12-28T10:45:00,prt,19.42
2023-12-28T10:46:00,prt,20.38
2023-12-28T10:47:00,prt,19.21
2023-12-28T10:48:00,prt,17.71
2023-12-28T10:49:00,prt,17.80
2023-12-28T10:50:00,prt,18.54
2023-12-28T10:51:00,prt,20.55
2023-12-28T10:52:00,prt,19.33
2023-12-28T10:53:00,prt,19.60
2023-12-28T10:54:00,prt,19.53
2023-12-28T10:55:00,prt,19.94
2023-12-28T10:56:00,prt,20.46
2023-12-28T10:57:00,prt,21.71
2023-12-28T10:58:00,prt,21.74
2023-12-28T10:59:00,prt,21.09
2023-12-28T11:00:00,prt,18.43
2023-12-28T11:01:00,prt,18.72
2023-12-28T11:02:00,prt,18.15
2023-12-28T11:03:00,prt,17.99
2023-12-28T11:04:00,prt,18.19
2023-12-28T11:05:00,prt,16.83
2023-12-28T11:06:00,prt,16.90
2023-12-28T11:07:00,prt,18.41
2023-12-28T11:08:00,prt,21.75
2023-12-28T11:09:00,prt,25.93
2023-12-28T11:10:00,prt,25.45
2023-12-28T11:11:00,prt,23.69
2023-12-28T11:12:00,prt,21.77
2023-12-28T11:13:00,prt,20.62
2023-12-28T11:14:00,prt,20.75
2023-12-28T11:15:00,prt,20.02
2023-12-28T11:16:00,prt,17.06
2023-12-28T11:17:00,prt,17.93
2023-12-28T11:18:00,prt,17.95
2023-12-28T11:19:00,prt,17.15
2023-12-28T11:20:00,prt,16.56
2023-12-28T11:21:00,prt,16.53
2023-12-28T11:22:00,prt,17.92
2023-12-28T11:23:00,prt,18.09
2023-12-28T11:24:00,prt,18.21
2023-12-28T11:25:00,prt,18.93
2023-12-28T11:26:00,prt,18.02
2023-12-28T11:27:00,prt,18.62
2023-12-28T11:28:00,prt,18.87
2023-12-28T11:29:00,prt,19.10
2023-12-28T11:30:00,prt,18.69
2023-12-28T11:31:00,prt,18.04
2023-12-28T11:32:00,prt,19.00
2023-12-28T11:33:00,prt,18.14
2023-12-28T11:34:00,prt,17.71
2023-12-28T11:35:00,prt,19.40
2023-12-28T11:36:00,prt,19.31
2023-12-28T11:37:00,prt,19.28
2023-12-28T11:38:00,prt,21.09
2023-12-28T11:39:00,prt,22.48
2023-12-28T11:40:00,prt,23.04
2023-12-28T11:41:00,prt,26.09
2023-12-28T11:42:00,prt,24.85
2023-12-28T11:43:00,prt,22.69
2023-12-28T11:44:00,prt,22.61
2023-12-28T11:45:00,prt,23.05
2023-12-28T11:46:00,prt,20.50
2023-12-28T11:47:00,prt,20.39
2023-12-28T11:48:00,prt,21.09
2023-12-28T11:49:00,prt,23.15
2023-12-28T11:50:00,prt,23.28
2023-12-28T11:51:00,prt,27.07
2023-12-28T11:52:00,prt,24.13
2023-12-28T11:53:00,prt,22.22
2023-12-28T11:54:00,prt,20.31
2023-12-28T11:55:00,prt,19.98
2023-12-28T11:56:00,prt,19.48
2023-12-28T11:57:00,prt,19.80
2023-12-28T11:58:00,prt,19.46
2023-12-28T11:59:00,prt,19.55
2023-12-28T12:00:00,prt,19.57
2023-12-28T12:01:00,prt,20.23
2023-12-28T12:02:00,prt,19.62
2023-12-28T12:03:00,prt,19.61
2023-12-28T12:04:00,prt,19.66
2023-12-28T12:05:00,prt,21.27
2023-12-28T12:06:00,prt,19.34
2023-12-28T12:07:00,prt,20.70
2023-12-28T12:08:00,prt,20.78
2023-12-28T12:09:00,prt,19.80
2023-12-28T12:10:00,prt,24.58
2023-12-28T12:11:00,prt,24.97
2023-12-28T12:12:00,prt,24.45
2023-12-28T12:13:00,prt,23.75
2023-12-28T12:14:00,prt,19.98
2023-12-28T12:15:00,prt,19.40
2023-12-28T12:16:00,prt,20.12
2023-12-28T12:17:00,prt,19.77
2023-12-28T12:18:00,prt,20.44
2023-12-28T12:19:00,prt,18.50
2023-12-28T12:20:00,prt,19.55
2023-12-28T12:21:00,prt,19.80
2023-12-28T12:22:00,prt,18.76
2023-12-28T12:23:00,prt,17.73
2023-12-28T12:24:00,prt,18.12
2023-12-28T12:25:00,prt,17.69
2023-12-28T12:26:00,prt,19.26
2023-12-28T12:27:00,prt,19.62
2023-12-28T12:28:00,prt,22.67
2023-12-28T12:29:00,prt,20.80
2023-12-28T12:30:00,prt,20.48
2023-12-28T12:31:00,prt,21.66
2023-12-28T12:32:00,prt,24.19
2023-12-28T12:33:00,prt,23.75
2023-12-28T12:34:00,prt,22.69
2023-12-28T12:35:00,prt,21.94
2023-12-28T12:36:00,prt,21.59
2023-12-28T12:37:00,prt,21.93
2023-12-28T12:38:00,prt,21.19
2023-12-28T12:39:00,prt,21.62
2023-12-28T12:40:00,prt,21.61
2023-12-28T12:41:00,prt,23.32
2023-12-28T12:42:00,prt,23.40
2023-12-28T12:43:00,prt,24.45
2023-12-28T12:44:00,prt,23.29
2023-12-28T12:45:00,prt,21.20
2023-12-28T12:46:00,prt,19.20
2023-12-28T12:47:00,prt,19.58
2023-12-28T12:48:00,prt,16.13
2023-12-28T12:49:00,prt,16.34
2023-12-28T12:50:00,prt,16.20
2023-12-28T12:51:00,prt,16.24
2023-12-28T12:52:00,prt,17.43
2023-12-28T12:53:00,prt,18.17
2023-12-28T12:54:00,prt,17.83
2023-12-28T12:55:00,prt,17.75
2023-12-28T12:56:00,prt,17.51
2023-12-28T12:57:00,prt,17.31
2023-12-28T12:58:00,prt,16.83
2023-12-28T12:59:00,prt,17.44
2023-12-28T13:00:00,prt,17.13
2023-12-28T13:01:00,prt,17.35
2023-12-28T13:02:00,prt,16.89
2023-12-28T13:03:00,prt,17.54
2023-12-28T13:04:00,prt,16.96
2023-12-28T13:05:00,prt,16.48
2023-12-28T13:06:00,prt,15.77
2023-12-28T13:07:00,prt,15.95
2023-12-28T13:08:00,prt,20.18
2023-12-28T13:09:00,prt,20.14
2023-12-28T13:10:00,prt,19.67
2023-12-28T13:11:00,prt,20.09
2023-12-28T13:12:00,prt,22.88
2023-12-28T13:13:00,prt,24.90
2023-12-28T13:14:00,prt,24.82
2023-12-28T13:15:00,prt,21.05
2023-12-28T13:16:00,prt,17.88
2023-12-28T13:17:00,prt,16.65
2023-12-28T13:18:00,prt,16.32
2023-12-28T13:19:00,prt,15.87